Regional Weather Roundup
Issued by NWS Upton, NY

Current Version | Previous Version | Graphics & Text | Print | Product List | Glossary Off
Versions: 1 2 3 4 5 6 7 8 9 10 11 12 13 14 15 16 17 18 19 20 21 22 23 24 25 26 27 28 29 30 31 32 33 34 35 36 37 38 39 40 41 42 43 44 45 46 47

000
ASUS41 KOKX 271505
RWROKX

REGIONAL WEATHER ROUNDUP
NATIONAL WEATHER SERVICE NEW YORK NY
1000 AM EST FRI FEB 27 2015

NOTE: "FAIR" INDICATES FEW OR NO CLOUDS BELOW 12,000 FEET WITH NO
SIGNIFICANT WEATHER AND/OR OBSTRUCTIONS TO VISIBILITY.

NYZ071-072-176-178-NJZ106-104-271600-
NEW YORK CITY METRO AREA


CITY           SKY/WX    TMP DP  RH WIND       PRES   REMARKS
CENTRAL PARK   SUNNY     20   4  50 VRB5      30.40R WCI  13
LAGUARDIA APRT SUNNY     21   7  54 N9        30.40R WCI  11
KENNEDY INTL   MOSUNNY   24   6  46 N13       30.40R WCI  12
NEWARK/LIBERTY MOSUNNY   22   8  55 N9        30.40R WCI  12
BRNX BOT. GARD   N/A    N/A N/A N/A NW7       30.41R
TETERBORO      SUNNY     20   4  50 N9        30.40R WCI   9
$$

NYZ177-179-078>081-271600-
LONG ISLAND NEW YORK

CITY           SKY/WX    TMP DP  RH WIND       PRES   REMARKS
FARMINGDALE    SUNNY     22   6  50 N10       30.38R WCI  11
ISLIP          MOSUNNY   21   6  52 N13       30.36R WCI   9
SHIRLEY        MIX PCPN  22   8  55 N13       30.38R WCI  10
WESTHAMPTON    SUNNY     22   9  57 N8        30.37R WCI  12
MONTAUK POINT    N/A     23   6  48 N6        30.36R WCI  16
$$

NYZ052-065-067-271600-
HUDSON VALLEY

CITY           SKY/WX    TMP DP  RH WIND       PRES   REMARKS
WHITE PLAINS   SUNNY     18   2  49 NW13      30.35R WCI   5
NEWBURGH       SUNNY     16   1  53 CALM      30.38R
MONTGOMERY     SUNNY     14   1  56 CALM      30.38R
POUGHKEEPSIE   SUNNY     18  -1  43 VRB5      30.41R WCI  11
ALBANY         SUNNY     13  -6  42 NW8       30.42R WCI   2
$$

NJZ001-105-106-008-010-013-015-019>022-104-271600-
NEW JERSEY

CITY           SKY/WX    TMP DP  RH WIND       PRES   REMARKS
NEWARK/LIBERTY MOSUNNY   22   8  55 N9        30.40R WCI  12
TETERBORO      SUNNY     20   4  50 N9        30.40R WCI   9
CALDWELL       SUNNY     20   3  48 VRB3      30.40R
MORRISTOWN     SUNNY     21   5  49 N6        30.40S WCI  14
SOMERVILLE     SUNNY     22   4  46 NW7       30.38S WCI  13
SUSSEX         SUNNY     18  -1  43 N8        30.37S WCI   8
ANDOVER          N/A     16  -1  47 N8        30.37S WCI   5
TRENTON        SUNNY     22   6  50 N7        30.39R WCI  13
MILLVILLE      SUNNY     27  15  61 N8        30.38S WCI  19
ATLANTIC CITY  MOSUNNY   26  14  60 NW9       30.38S WCI  17
WRIGHTSTOWN    MOSUNNY   23  10  56 NW8       30.37R WCI  14
TOMS RIVER     SUNNY     25  12  58 NW9       30.39S WCI  15
BELMAR         SUNNY     25   9  50 NW9       30.38R WCI  15
$$

PAZ047>061-062-071-271600-
EASTERN PENNSYLVANIA

CITY           SKY/WX    TMP DP  RH WIND       PRES   REMARKS
PHILADELPHIA   CLOUDY    24  14  65 VRB6      30.42R WCI  17
ALLENTOWN      SUNNY     17   2  51 N8        30.41R WCI   7
SCRANTON       FLURRIES  13   0  56 N7        30.37S WCI   3
$$

CTZ002-004>006-009-010-012-RIZ004-006-007-MAZ004-011-015-271600-
SOUTHERN NEW ENGLAND
 IN CT

CITY           SKY/WX    TMP DP  RH WIND       PRES   REMARKS
BRADLEY INTL   MOSUNNY   19   2  47 N7        30.37R WCI  10
HARTFORD       SUNNY     19   3  49 NW9       30.39R WCI   8
DANBURY        SUNNY     17  -5  37 NW12      30.37R WCI   4
WTRBRY/OXFORD  SUNNY     16  -2  45 NW8       30.33R WCI   5
BRIDGEPORT     SUNNY     21   3  45 N8        30.38R WCI  11
MERIDEN        SUNNY     18   2  49 NW7       30.38R WCI   9
NEW HAVEN      SUNNY     20   4  50 N10       30.37R WCI   9
CHESTER        FAIR      19   5  53 N7        30.33S WCI  10
GROTON         SUNNY     20   6  55 N12       30.35R WCI   8
WILLIMANTIC    SUNNY     20   3  48 N8        30.34S WCI  10

 IN RI

CITY           SKY/WX    TMP DP  RH WIND       PRES   REMARKS
PROVIDENCE     MOSUNNY   20   3  48 N9        30.35R WCI   9
BLOCK ISLAND   MOSUNNY   23   7  50 N8        30.32R WCI  14
WESTERLY       SUNNY     22   2  42 NW9       30.34S WCI  12

 IN MA

CITY           SKY/WX    TMP DP  RH WIND       PRES   REMARKS
BOSTON         MOSUNNY   19  -4  36 NW10      30.35R WCI   7
WORCESTER      SUNNY     15  -4  42 NW10      30.26S WCI   2
WESTFIELD      SUNNY     18   0  45 CALM      30.36R
PROVINCETOWN   SUNNY     21   9  58 NW12      30.32S WCI   9
NANTUCKET      SUNNY     24  11  57 N14       30.31R WCI  12
$$

ANZ330-335-338-340-345-350-353-355-271600-
COASTAL MARINE OBSERVATIONS


STATION/POSITION TIME  SKY/WX   TEMP    WIND        PRES    VSBY  WAVE
                                AIR SEA DIR/SP/G                  HT/PER
                 (UTC)          (F)     (DEG/KT/KT) (MB)    (MI)  (FT/S)
NY HARB ENTRANCE 1500            23 38  350/ 10/ 14 1029.0          4/11
4S FIRE IS       NOT AVBL
20S FIRE ISLAND  1400               36              1028.2          6/11
23SW MTP         1500                                 N/A           5/10
HUDSON CANYON    NOT AVBL
EXECUTION ROCKS  NOT AVBL
WESTERN LI SOUND NOT AVBL
CENTRAL LI SOUND NOT AVBL
EASTERN LI SOUND NOT AVBL
ROBBINS REEF     1500            18     360/ 11/ 13 1028.1
$$


>>>>>>>>>>>>>>>>>>>>>>>>>>>> KEY <<<<<<<<<<<<<<<<<<<<<<<<<<<
>                                                          <
>     SKY/WX - SKY CONDITION/PRESENT WEATHER               <
>     TMP    - TEMPERATURE IN FAHRENHEIT                   <
>     DP     - DEWPOINT IN FAHRENHEIT                      <
>     RH     - RELATIVE HUMIDITY IN PERCENT                <
>     WIND   - DIRECTION AND SPEED IN MPH                  <
>     PRES   - MEAN SEA LEVEL PRESSURE IN INCHES OF HG     <
>     WCI    - WIND CHILL INDEX                            <
>     VSB    - VISIBILITY IN MILES                         <
>     HX     - HEAT INDEX                                  <
>     TC     - TEMPERATURE IN CELSIUS                      <
>     VRB    - VARIABLE WIND DIRECTION                     <
>                                                          <
>>>>>>>>>>>>>>>>>>>>>>>>>>>> KEY <<<<<<<<<<<<<<<<<<<<<<<<<<<




USA.gov is the U.S. government's official web portal to all federal, state and local government web resources and services.